Glendale Luke AFB, AZ

7:50 PM MST on October 18, 2019 (GMT -0700)
Luke Air Force Base

Weather History for KLUF - September, 2019

Change the Weather History Date:

Sunday, September 22, 2019

  Actual Average Record
Temperature  
Mean Temperature 81 °F -  
Max Temperature 96 °F 99 °F 109 °F (1982)
Min Temperature 66 °F 63 °F 49 °F (1941)
Cooling Degree Days 16    
Growing Degree Days 31 (Base 50)    
Moisture  
Dew Point 37 °F    
Average Humidity 21    
Maximum Humidity 30    
Minimum Humidity 9    
Precipitation  
Precipitation 0.00 in - - ()
Sea Level Pressure  
Sea Level Pressure 29.85 in    
Wind  
Wind Speed 5 mph (NNE)    
Max Wind Speed 10 mph    
Max Gust Speed -    
Visibility 10 miles    
Events      
Averages and records for this station are not official NWS values.
T = Trace of Precipitation, MM = Missing Value Source: NWS Daily Summary

Daily Weather History Graph

Daily Weather History Graph

Search for Another Location

Airport or City:

Astronomy

Sep. 22, 2019 Rise Set
Actual Time 6:17 AM MST 6:26 PM MST
Civil Twilight 5:52 AM MST 6:51 PM MST
Nautical Twilight 5:23 AM MST 7:20 PM MST
Astronomical Twilight 4:54 AM MST 7:49 PM MST
Moon No Moon Rise 2:07 PM MST (9/22)
Length of Visible Light 12h 58m
Length of Day
12h 08m
Last Quarter, 43% of the Moon is Illuminated
Sep 22
Last Quarter
Sep 28
New
Oct 5
First Quarter
Oct 13
Full
Oct 21
Last Quarter

Hourly Weather History & Observations

Time (MST) Temp. Dew Point Humidity Pressure Visibility Wind Dir Wind Speed Gust Speed Precip Events Conditions
12:58 AM 72.7 °F 23.9 °F 16% 29.83 in 10.0 mi North 8.1 mph - N/A   Clear
1:58 AM 71.4 °F 28.2 °F 20% 29.83 in 10.0 mi NNE 9.2 mph - N/A   Clear
2:58 AM 67.6 °F 28.6 °F 23% 29.83 in 10.0 mi NNE 3.5 mph - N/A   Clear
3:58 AM 69.8 °F 27.0 °F 20% 29.84 in 10.0 mi NNE 5.8 mph - N/A   Clear
4:58 AM 66.2 °F 32.2 °F 28% 29.86 in 10.0 mi NNW 9.2 mph - N/A   Clear
5:58 AM 66.6 °F 30.6 °F 26% 29.88 in 10.0 mi NNW 6.9 mph - N/A   Clear
6:58 AM 67.3 °F 33.1 °F 28% 29.90 in 10.0 mi Calm Calm - N/A   Clear
7:58 AM 74.3 °F 30.6 °F 20% 29.92 in 10.0 mi Calm Calm - N/A   Clear
8:58 AM 79.7 °F 29.5 °F 16% 29.93 in 10.0 mi NE 3.5 mph - N/A   Clear
9:58 AM 83.7 °F 31.1 °F 15% 29.94 in 10.0 mi Calm Calm - N/A   Clear
10:58 AM 88.2 °F 32.9 °F 14% 29.93 in 10.0 mi ESE 8.1 mph - N/A   Clear
11:58 AM 90.7 °F 28.9 °F 11% 29.91 in 10.0 mi SE 6.9 mph - N/A   Clear
12:58 PM 93.4 °F 26.1 °F 9% 29.88 in 10.0 mi SSE 3.5 mph - N/A   Clear
1:58 PM 95.9 °F 32.9 °F 11% 29.86 in 10.0 mi South 5.8 mph - N/A   Clear
2:58 PM 96.3 °F 39.2 °F 14% 29.83 in 10.0 mi ESE 4.6 mph - N/A   Clear
3:58 PM 96.3 °F 44.2 °F 17% 29.81 in 10.0 mi Calm Calm - N/A   Clear
4:58 PM 96.1 °F 45.7 °F 18% 29.80 in 10.0 mi WSW 10.4 mph - N/A   Clear
5:58 PM 94.5 °F 44.4 °F 18% 29.80 in 10.0 mi SW 4.6 mph - N/A   Clear
6:58 PM 93.2 °F 43.3 °F 18% 29.80 in 10.0 mi SW 3.5 mph - N/A   Clear
7:58 PM 88.0 °F 45.5 °F 23% 29.81 in 10.0 mi Calm Calm - N/A   Clear
8:58 PM 85.6 °F 44.6 °F 24% 29.83 in 10.0 mi NW 3.5 mph - N/A   Partly Cloudy
9:38 PM 84.2 °F 48.2 °F 29% 29.83 in 10.0 mi North 3.5 mph - N/A   Mostly Cloudy
9:48 PM 84.2 °F 46.4 °F 27% 29.83 in 10.0 mi NNE 3.5 mph - N/A   Scattered Clouds
9:58 PM 84.7 °F 46.9 °F 27% 29.82 in 10.0 mi Calm Calm - N/A   Partly Cloudy
10:58 PM 82.8 °F 48.2 °F 30% 29.82 in 10.0 mi Calm Calm - N/A   Partly Cloudy
11:18 PM 82.4 °F 48.2 °F 30% 29.82 in 10.0 mi Calm Calm - N/A   Mostly Cloudy
11:58 PM 82.4 °F 46.0 °F 28% 29.83 in 10.0 mi West 3.5 mph - N/A   Overcast